| time (UTC) | temp F | wind direction | speed MPH | gust MPH | rain 1hr in | rain 24hr in | rain mn in | humidity % | barometer mb |
| 20260906093758 | 72 | 356 | 0.0 | 2.0 | 0.00 | 0.07 | 0.00 | 97 | 1012.5 |
| 20260906093601 | 72 | 16 | 1.0 | 2.0 | 0.00 | 0.07 | 0.00 | 96 | 1012.5 |
| 20260906093358 | 72 | 20 | 1.0 | 3.0 | 0.00 | 0.07 | 0.00 | 96 | 1012.5 |
| 20260906093159 | 72 | 20 | 1.0 | 3.0 | 0.00 | 0.07 | 0.00 | 96 | 1012.4 |
| 20260906092959 | 72 | 20 | 1.0 | 4.0 | 0.00 | 0.07 | 0.00 | 96 | 1012.4 |
| 20260906092558 | 72 | 24 | 1.0 | 4.0 | 0.00 | 0.07 | 0.00 | 96 | 1012.3 |
| 20260906092158 | 72 | 354 | 1.0 | 3.0 | 0.00 | 0.07 | 0.00 | 96 | 1012.3 |
| 20260906091959 | 72 | 13 | 1.0 | 3.0 | 0.00 | 0.07 | 0.00 | 96 | 1012.4 |
| 20260906091758 | 72 | 8 | 1.0 | 3.0 | 0.00 | 0.07 | 0.00 | 96 | 1012.3 |
| 20260906091559 | 72 | 18 | 1.0 | 4.0 | 0.00 | 0.07 | 0.00 | 96 | 1012.4 |
| 20260906091358 | 72 | 352 | 1.0 | 4.0 | 0.00 | 0.07 | 0.00 | 96 | 1012.3 |
| 20260906091159 | 72 | 336 | 1.0 | 4.0 | 0.00 | 0.07 | 0.00 | 96 | 1012.3 |
| 20260906090958 | 73 | 4 | 2.0 | 4.0 | 0.00 | 0.07 | 0.00 | 96 | 1012.3 |
| 20260906090759 | 73 | 27 | 1.0 | 4.0 | 0.00 | 0.07 | 0.00 | 96 | 1012.3 |
| 20260906090559 | 73 | 36 | 1.0 | 3.0 | 0.00 | 0.07 | 0.00 | 96 | 1012.3 |
| 20260906090359 | 73 | 19 | 1.0 | 3.0 | 0.00 | 0.07 | 0.00 | 96 | 1012.3 |
| 20260906090002 | 73 | 359 | 1.0 | 3.0 | 0.00 | 0.07 | 0.00 | 96 | 1012.3 |
| 20260906085759 | 73 | 4 | 1.0 | 3.0 | 0.00 | 0.07 | 0.00 | 96 | 1012.2 |
| 20260906085559 | 73 | 356 | 2.0 | 4.0 | 0.00 | 0.07 | 0.00 | 96 | 1012.3 |
| 20260906085358 | 73 | 17 | 2.0 | 4.0 | 0.00 | 0.07 | 0.00 | 96 | 1012.3 |
| 20260906085200 | 73 | 355 | 2.0 | 4.0 | 0.00 | 0.07 | 0.00 | 96 | 1012.3 |
| 20260906084958 | 73 | 6 | 2.0 | 4.0 | 0.00 | 0.07 | 0.00 | 96 | 1012.2 |
| 20260906084800 | 73 | 34 | 2.0 | 4.0 | 0.00 | 0.07 | 0.00 | 96 | 1012.2 |
| 20260906084558 | 73 | 35 | 3.0 | 4.0 | 0.00 | 0.07 | 0.00 | 96 | 1012.2 |
| 20260906084359 | 73 | 27 | 3.0 | 7.0 | 0.00 | 0.07 | 0.00 | 96 | 1012.3 |
| 20260906084158 | 73 | 49 | 3.0 | 7.0 | 0.00 | 0.07 | 0.00 | 96 | 1012.3 |
| 20260906083959 | 73 | 42 | 3.0 | 7.0 | 0.00 | 0.07 | 0.00 | 96 | 1012.4 |
| 20260906083800 | 73 | 15 | 3.0 | 7.0 | 0.00 | 0.07 | 0.00 | 96 | 1012.4 |
| 20260906083559 | 73 | 13 | 3.0 | 7.0 | 0.00 | 0.07 | 0.00 | 96 | 1012.4 |
| 20260906083358 | 73 | 7 | 3.0 | 6.0 | 0.00 | 0.07 | 0.00 | 96 | 1012.3 |
| 20260906083159 | 73 | 24 | 3.0 | 6.0 | 0.00 | 0.07 | 0.00 | 96 | 1012.3 |
| 20260906082959 | 73 | 32 | 2.0 | 6.0 | 0.00 | 0.07 | 0.00 | 97 | 1012.2 |
| 20260906082759 | 73 | 46 | 2.0 | 6.0 | 0.00 | 0.07 | 0.00 | 97 | 1012.3 |
| 20260906082559 | 73 | 344 | 2.0 | 6.0 | 0.00 | 0.07 | 0.00 | 97 | 1012.3 |
| 20260906082359 | 73 | 6 | 1.0 | 5.0 | 0.00 | 0.07 | 0.00 | 97 | 1012.3 |
| 20260906082158 | 73 | 34 | 1.0 | 5.0 | 0.00 | 0.07 | 0.00 | 97 | 1012.3 |
| 20260906081959 | 73 | 34 | 2.0 | 5.0 | 0.00 | 0.07 | 0.00 | 97 | 1012.3 |
| 20260906081758 | 73 | 5 | 2.0 | 5.0 | 0.00 | 0.07 | 0.00 | 97 | 1012.3 |
| 20260906081559 | 73 | 20 | 2.0 | 5.0 | 0.00 | 0.07 | 0.00 | 97 | 1012.3 |
| 20260906081358 | 73 | 49 | 2.0 | 5.0 | 0.00 | 0.07 | 0.00 | 97 | 1012.3 |
| 20260906081159 | 73 | 39 | 2.0 | 5.0 | 0.00 | 0.07 | 0.00 | 98 | 1012.3 |
| 20260906080959 | 73 | 39 | 2.0 | 5.0 | 0.00 | 0.07 | 0.00 | 98 | 1012.2 |
| 20260906080759 | 73 | 60 | 2.0 | 5.0 | 0.00 | 0.07 | 0.00 | 98 | 1012.3 |
| 20260906080558 | 73 | 43 | 2.0 | 5.0 | 0.00 | 0.07 | 0.00 | 98 | 1012.3 |
| 20260906080359 | 72 | 17 | 1.0 | 4.0 | 0.00 | 0.07 | 0.00 | 98 | 1012.3 |
| 20260906080158 | 73 | 39 | 1.0 | 2.0 | 0.00 | 0.07 | 0.00 | 98 | 1012.3 |
| 20260906080001 | 72 | 38 | 0.0 | 2.0 | 0.00 | 0.07 | 0.00 | 98 | 1012.2 |
| 20260906075758 | 73 | 41 | 0.0 | 2.0 | 0.00 | 0.07 | 0.00 | 98 | 1012.2 |
| 20260906075559 | 73 | 39 | 0.0 | 1.0 | 0.00 | 0.07 | 0.00 | 98 | 1012.2 |
| 20260906075358 | 73 | 39 | 0.0 | 1.0 | 0.00 | 0.07 | 0.00 | 98 | 1012.2 |
| 20260906075200 | 73 | 41 | 1.0 | 2.0 | 0.00 | 0.07 | 0.00 | 98 | 1012.1 |
| 20260906074958 | 73 | 41 | 1.0 | 2.0 | 0.00 | 0.07 | 0.00 | 98 | 1012.1 |
| 20260906074800 | 73 | 41 | 1.0 | 2.0 | 0.00 | 0.07 | 0.00 | 98 | 1012.2 |
| 20260906074558 | 73 | 41 | 1.0 | 3.0 | 0.00 | 0.07 | 0.00 | 98 | 1012.2 |
| 20260906074358 | 73 | 41 | 1.0 | 3.0 | 0.00 | 0.07 | 0.00 | 98 | 1012.2 |
| 20260906074158 | 73 | 41 | 1.0 | 3.0 | 0.00 | 0.07 | 0.00 | 98 | 1012.2 |
| 20260906073959 | 73 | 26 | 1.0 | 3.0 | 0.00 | 0.07 | 0.00 | 99 | 1012.1 |
| 20260906073758 | 73 | 16 | 1.0 | 3.0 | 0.00 | 0.07 | 0.00 | 99 | 1012.1 |
| 20260906073558 | 73 | 355 | 1.0 | 3.0 | 0.00 | 0.07 | 0.00 | 99 | 1012.2 |
| 20260906073358 | 73 | 353 | 1.0 | 3.0 | 0.00 | 0.07 | 0.00 | 99 | 1012.2 |
| 20260906073158 | 73 | 340 | 1.0 | 4.0 | 0.00 | 0.07 | 0.00 | 99 | 1012.1 |
| 20260906072959 | 73 | 27 | 1.0 | 4.0 | 0.00 | 0.07 | 0.00 | 99 | 1012.1 |
| 20260906072758 | 73 | 32 | 1.0 | 4.0 | 0.00 | 0.07 | 0.00 | 99 | 1012.1 |
| 20260906072558 | 73 | 343 | 0.0 | 4.0 | 0.00 | 0.07 | 0.00 | 99 | 1012.1 |
| 20260906072358 | 73 | 338 | 0.0 | 2.0 | 0.00 | 0.07 | 0.00 | 99 | 1012.1 |
| 20260906072159 | 73 | 358 | 0.0 | 0.0 | 0.00 | 0.07 | 0.00 | 99 | 1012.1 |
| 20260906071958 | 73 | 18 | 0.0 | 0.0 | 0.00 | 0.07 | 0.00 | 99 | 1012.1 |
| 20260906071759 | 73 | 18 | 0.0 | 0.0 | 0.00 | 0.07 | 0.00 | 99 | 1012.1 |
| 20260906071358 | 73 | 18 | 0.0 | 1.0 | 0.00 | 0.07 | 0.00 | 99 | 1012.1 |
| 20260906071158 | 73 | 18 | 1.0 | 2.0 | 0.00 | 0.07 | 0.00 | 99 | 1012.1 |
| 20260906070959 | 73 | 17 | 1.0 | 2.0 | 0.00 | 0.07 | 0.00 | 99 | 1012.1 |
| 20260906070758 | 73 | 17 | 1.0 | 3.0 | 0.00 | 0.07 | 0.00 | 99 | 1012.1 |
| 20260906070558 | 73 | 18 | 1.0 | 3.0 | 0.00 | 0.07 | 0.00 | 99 | 1012.2 |
| 20260906070358 | 73 | 32 | 1.0 | 3.0 | 0.00 | 0.07 | 0.00 | 99 | 1012.2 |
| 20260906070159 | 73 | 37 | 1.0 | 3.0 | 0.00 | 0.07 | 0.00 | 99 | 1012.2 |
| 20260906070000 | 73 | 37 | 0.0 | 3.0 | 0.00 | 0.07 | 0.00 | 99 | 1012.2 |
| 20260906065759 | 74 | 11 | 0.0 | 0.0 | 0.00 | 0.07 | 0.00 | 99 | 1012.3 |
| 20260906065558 | 74 | 354 | 0.0 | 2.0 | 0.00 | 0.07 | 0.00 | 99 | 1012.3 |
| 20260906065359 | 74 | 354 | 0.0 | 2.0 | 0.00 | 0.07 | 0.00 | 99 | 1012.3 |
| 20260906065200 | 74 | 354 | 0.0 | 2.0 | 0.00 | 0.07 | 0.00 | 99 | 1012.3 |
| 20260906065000 | 74 | 354 | 0.0 | 2.0 | 0.00 | 0.07 | 0.00 | 100 | 1012.3 |
| 20260906064758 | 74 | 8 | 0.0 | 0.0 | 0.00 | 0.07 | 0.00 | 99 | 1012.3 |
| 20260906064358 | 74 | 13 | 0.0 | 0.0 | 0.00 | 0.07 | 0.00 | 99 | 1012.4 |
| 20260906064159 | 74 | 13 | 0.0 | 0.0 | 0.00 | 0.07 | 0.00 | 99 | 1012.4 |
| 20260906063959 | 74 | 13 | 0.0 | 0.0 | 0.00 | 0.07 | 0.00 | 99 | 1012.4 |
| 20260906063759 | 74 | 13 | 0.0 | 0.0 | 0.00 | 0.07 | 0.00 | 99 | 1012.5 |
| 20260906063558 | 74 | 13 | 0.0 | 0.0 | 0.00 | 0.07 | 0.00 | 99 | 1012.5 |
| 20260906063359 | 74 | 14 | 0.0 | 0.0 | 0.00 | 0.07 | 0.00 | 99 | 1012.6 |
| 20260906063158 | 74 | 251 | 0.0 | 0.0 | 0.00 | 0.07 | 0.00 | 99 | 1012.6 |
| 20260906062959 | 74 | 251 | 0.0 | 0.0 | 0.00 | 0.07 | 0.00 | 99 | 1012.7 |
| 20260906062758 | 74 | 251 | 0.0 | 1.0 | 0.00 | 0.07 | 0.00 | 99 | 1012.8 |
| 20260906062559 | 74 | 251 | 0.0 | 1.0 | 0.00 | 0.07 | 0.00 | 99 | 1012.7 |
| 20260906062358 | 74 | 251 | 0.0 | 1.0 | 0.00 | 0.07 | 0.00 | 99 | 1012.8 |
| 20260906062159 | 74 | 251 | 1.0 | 1.0 | 0.00 | 0.07 | 0.00 | 99 | 1012.8 |
| 20260906061958 | 74 | 251 | 1.0 | 3.0 | 0.00 | 0.07 | 0.00 | 99 | 1012.8 |
| 20260906061759 | 74 | 266 | 1.0 | 3.0 | 0.00 | 0.07 | 0.00 | 99 | 1012.8 |
| 20260906061558 | 74 | 9 | 2.0 | 5.0 | 0.00 | 0.07 | 0.00 | 100 | 1012.8 |
| 20260906061359 | 74 | 9 | 2.0 | 5.0 | 0.00 | 0.07 | 0.00 | 100 | 1012.7 |
| 20260906061200 | 74 | 20 | 2.0 | 5.0 | 0.00 | 0.07 | 0.00 | 100 | 1012.8 |
| 20260906060959 | 74 | 319 | 1.0 | 5.0 | 0.00 | 0.07 | 0.00 | 100 | 1012.8 |
| 20260906060358 | 74 | 128 | 0.0 | 0.0 | 0.00 | 0.07 | 0.00 | 99 | 1012.6 |
| 20260906060159 | 74 | 213 | 0.0 | 0.0 | 0.00 | 0.07 | 0.00 | 99 | 1012.6 |
| 20260906060001 | 74 | 213 | 0.0 | 0.0 | 0.00 | 0.07 | 0.00 | 99 | 1012.5 |
| 20260906055758 | 74 | 213 | 0.0 | 0.0 | 0.00 | 0.07 | 0.00 | 99 | 1012.5 |
| 20260906055558 | 74 | 213 | 0.0 | 0.0 | 0.00 | 0.07 | 0.00 | 99 | 1012.5 |
| 20260906055358 | 74 | 213 | 0.0 | 0.0 | 0.00 | 0.07 | 0.00 | 98 | 1012.5 |
| 20260906055158 | 74 | 213 | 0.0 | 0.0 | 0.00 | 0.07 | 0.00 | 98 | 1012.5 |
| 20260906054958 | 74 | 213 | 0.0 | 0.0 | 0.00 | 0.07 | 0.00 | 99 | 1012.5 |
| 20260906054758 | 74 | 213 | 0.0 | 0.0 | 0.00 | 0.07 | 0.00 | 99 | 1012.5 |
| 20260906054558 | 74 | 213 | 0.0 | 0.0 | 0.00 | 0.07 | 0.00 | 99 | 1012.5 |
| 20260906054358 | 74 | 213 | 0.0 | 0.0 | 0.00 | 0.07 | 0.00 | 99 | 1012.5 |
| 20260906054159 | 74 | 213 | 0.0 | 0.0 | 0.00 | 0.07 | 0.00 | 99 | 1012.4 |
| 20260906053959 | 74 | 213 | 0.0 | 0.0 | 0.00 | 0.07 | 0.00 | 99 | 1012.4 |
| 20260906053759 | 74 | 213 | 0.0 | 0.0 | 0.00 | 0.07 | 0.00 | 98 | 1012.4 |
| 20260906053558 | 74 | 213 | 0.0 | 0.0 | 0.00 | 0.07 | 0.00 | 98 | 1012.4 |
| 20260906053359 | 74 | 213 | 0.0 | 0.0 | 0.00 | 0.07 | 0.00 | 98 | 1012.4 |
| 20260906053158 | 74 | 213 | 0.0 | 0.0 | 0.00 | 0.07 | 0.00 | 99 | 1012.4 |
| 20260906052959 | 74 | 213 | 0.0 | 0.0 | 0.00 | 0.07 | 0.00 | 99 | 1012.4 |
| 20260906052758 | 74 | 213 | 0.0 | 0.0 | 0.00 | 0.07 | 0.00 | 99 | 1012.4 |
| 20260906052358 | 74 | 213 | 0.0 | 0.0 | 0.00 | 0.07 | 0.00 | 98 | 1012.5 |
| 20260906052159 | 74 | 213 | 0.0 | 0.0 | 0.00 | 0.07 | 0.00 | 98 | 1012.6 |
| 20260906051958 | 74 | 213 | 0.0 | 0.0 | 0.00 | 0.07 | 0.00 | 98 | 1012.6 |
| 20260906051759 | 75 | 213 | 0.0 | 0.0 | 0.00 | 0.07 | 0.00 | 98 | 1012.6 |
| 20260906051558 | 75 | 213 | 0.0 | 0.0 | 0.00 | 0.07 | 0.00 | 98 | 1012.6 |
| 20260906051359 | 75 | 213 | 0.0 | 0.0 | 0.00 | 0.07 | 0.00 | 98 | 1012.6 |
| 20260906050959 | 75 | 213 | 0.0 | 0.0 | 0.00 | 0.07 | 0.00 | 98 | 1012.6 |
| 20260906050758 | 75 | 255 | 0.0 | 0.0 | 0.00 | 0.07 | 0.00 | 99 | 1012.6 |
| 20260906050559 | 75 | 256 | 0.0 | 0.0 | 0.00 | 0.07 | 0.00 | 99 | 1012.6 |
| 20260906050358 | 75 | 256 | 0.0 | 0.0 | 0.00 | 0.07 | 0.00 | 99 | 1012.6 |
| 20260906050159 | 75 | 248 | 0.0 | 0.0 | 0.00 | 0.07 | 0.00 | 99 | 1012.6 |
| 20260906050000 | 75 | 246 | 0.0 | 0.0 | 0.00 | 0.07 | 0.00 | 98 | 1012.5 |
| 20260906045758 | 75 | 246 | 0.0 | 0.0 | 0.00 | 0.07 | 0.00 | 98 | 1012.6 |
| 20260906045558 | 75 | 237 | 0.0 | 0.0 | 0.00 | 0.07 | 0.00 | 98 | 1012.5 |
| 20260906045358 | 75 | 39 | 0.0 | 0.0 | 0.00 | 0.07 | 0.00 | 98 | 1012.5 |
| 20260906045200 | 75 | 39 | 0.0 | 0.0 | 0.00 | 0.07 | 0.00 | 98 | 1012.5 |
| 20260906045000 | 75 | 38 | 0.0 | 0.0 | 0.00 | 0.07 | 0.00 | 98 | 1012.5 |
| 20260906044800 | 75 | 38 | 0.0 | 0.0 | 0.00 | 0.07 | 0.00 | 98 | 1012.5 |
| 20260906044600 | 75 | 38 | 0.0 | 0.0 | 0.00 | 0.07 | 0.00 | 98 | 1012.4 |
| 20260906044400 | 75 | 38 | 0.0 | 0.0 | 0.00 | 0.07 | 0.00 | 98 | 1012.4 |
| 20260906044200 | 75 | 38 | 0.0 | 0.0 | 0.00 | 0.07 | 0.00 | 98 | 1012.4 |
| 20260906043959 | 75 | 38 | 0.0 | 0.0 | 0.00 | 0.07 | 0.00 | 98 | 1012.4 |
| 20260906043601 | 75 | 39 | 0.0 | 0.0 | 0.00 | 0.07 | 0.00 | 98 | 1012.4 |
| 20260906043400 | 75 | 39 | 0.0 | 0.0 | 0.00 | 0.07 | 0.00 | 98 | 1012.4 |
| 20260906042800 | 76 | 38 | 0.0 | 0.0 | 0.00 | 0.07 | 0.00 | 98 | 1012.3 |
| 20260906042600 | 76 | 38 | 0.0 | 0.0 | 0.00 | 0.07 | 0.00 | 98 | 1012.3 |
| 20260906042400 | 76 | 38 | 0.0 | 0.0 | 0.00 | 0.07 | 0.00 | 98 | 1012.2 |
| 20260906042200 | 76 | 38 | 0.0 | 0.0 | 0.00 | 0.07 | 0.00 | 98 | 1012.1 |
| 20260906042000 | 76 | 38 | 0.0 | 0.0 | 0.00 | 0.07 | 0.00 | 98 | 1012.1 |
| 20260906041601 | 76 | 39 | 0.0 | 0.0 | 0.00 | 0.07 | 0.00 | 98 | 1012.1 |
| 20260906041400 | 76 | 38 | 0.0 | 0.0 | 0.00 | 0.07 | 0.00 | 98 | 1012.2 |
| 20260906041201 | 76 | 39 | 0.0 | 0.0 | 0.00 | 0.07 | 0.00 | 98 | 1012.2 |
| 20260906040959 | 76 | 39 | 0.0 | 0.0 | 0.00 | 0.07 | 0.00 | 97 | 1012.2 |
| 20260906040801 | 76 | 38 | 0.0 | 0.0 | 0.00 | 0.07 | 0.00 | 97 | 1012.2 |
| 20260906040600 | 76 | 38 | 0.0 | 0.0 | 0.00 | 0.07 | 0.00 | 97 | 1012.2 |
| 20260906040400 | 76 | 38 | 0.0 | 0.0 | 0.00 | 0.07 | 0.00 | 97 | 1012.2 |
| 20260906040200 | 76 | 39 | 0.0 | 0.0 | 0.00 | 0.07 | 0.00 | 97 | 1012.1 |
| 20260906040006 | 76 | 38 | 0.0 | 0.0 | 0.00 | 0.07 | 0.00 | 97 | 1012.0 |
| 20260906035800 | 76 | 38 | 0.0 | 0.0 | 0.00 | 0.07 | 0.07 | 97 | 1012.0 |
| 20260906035400 | 76 | 38 | 0.0 | 0.0 | 0.00 | 0.07 | 0.07 | 97 | 1012.0 |
| 20260906035002 | 76 | 38 | 0.0 | 0.0 | 0.00 | 0.07 | 0.07 | 96 | 1012.0 |
| 20260906034801 | 76 | 38 | 0.0 | 0.0 | 0.00 | 0.07 | 0.07 | 97 | 1012.0 |
| 20260906034200 | 77 | 39 | 0.0 | 0.0 | 0.00 | 0.07 | 0.07 | 96 | 1012.1 |
| 20260906034003 | 77 | 39 | 0.0 | 0.0 | 0.00 | 0.07 | 0.07 | 96 | 1012.1 |
| 20260906033800 | 77 | 39 | 0.0 | 0.0 | 0.00 | 0.07 | 0.07 | 96 | 1012.1 |
| 20260906033601 | 77 | 39 | 0.0 | 0.0 | 0.00 | 0.07 | 0.07 | 96 | 1012.1 |
| 20260906033400 | 77 | 39 | 0.0 | 0.0 | 0.00 | 0.07 | 0.07 | 96 | 1012.1 |
| 20260906033201 | 77 | 39 | 0.0 | 0.0 | 0.00 | 0.07 | 0.07 | 96 | 1012.1 |
| 20260906033002 | 77 | 283 | 0.0 | 0.0 | 0.00 | 0.07 | 0.07 | 97 | 1012.0 |
| 20260906032801 | 77 | 284 | 0.0 | 0.0 | 0.00 | 0.07 | 0.07 | 97 | 1012.0 |
| 20260906032600 | 77 | 284 | 0.0 | 0.0 | 0.00 | 0.07 | 0.07 | 97 | 1012.1 |
| 20260906032401 | 77 | 281 | 0.0 | 0.0 | 0.00 | 0.07 | 0.07 | 96 | 1012.1 |
| 20260906032200 | 77 | 201 | 0.0 | 0.0 | 0.00 | 0.07 | 0.07 | 96 | 1012.1 |
| 20260906032002 | 77 | 200 | 0.0 | 0.0 | 0.00 | 0.07 | 0.07 | 96 | 1012.2 |
| 20260906031800 | 77 | 200 | 0.0 | 0.0 | 0.00 | 0.07 | 0.07 | 96 | 1012.2 |
| 20260906031601 | 77 | 200 | 0.0 | 0.0 | 0.00 | 0.07 | 0.07 | 96 | 1012.2 |
| 20260906031002 | 77 | 153 | 0.0 | 0.0 | 0.00 | 0.07 | 0.07 | 96 | 1012.2 |
| 20260906030801 | 77 | 191 | 0.0 | 0.0 | 0.00 | 0.07 | 0.07 | 96 | 1012.2 |
| 20260906030600 | 77 | 298 | 0.0 | 0.0 | 0.00 | 0.07 | 0.07 | 96 | 1012.2 |
| 20260906030401 | 77 | 298 | 0.0 | 0.0 | 0.00 | 0.07 | 0.07 | 96 | 1012.2 |
| 20260906030200 | 77 | 298 | 0.0 | 0.0 | 0.00 | 0.07 | 0.07 | 96 | 1012.2 |
| 20260906030004 | 77 | 298 | 0.0 | 0.0 | 0.00 | 0.07 | 0.07 | 96 | 1012.1 |
| 20260906025600 | 77 | 298 | 0.0 | 0.0 | 0.00 | 0.07 | 0.07 | 96 | 1012.2 |
| 20260906025400 | 77 | 298 | 0.0 | 0.0 | 0.00 | 0.07 | 0.07 | 96 | 1012.3 |
| 20260906025200 | 77 | 298 | 0.0 | 0.0 | 0.00 | 0.07 | 0.07 | 96 | 1012.3 |
| 20260906025000 | 77 | 42 | 0.0 | 0.0 | 0.00 | 0.07 | 0.07 | 96 | 1012.2 |
| 20260906024801 | 77 | 43 | 0.0 | 0.0 | 0.00 | 0.07 | 0.07 | 96 | 1012.2 |
| 20260906024601 | 76 | 43 | 0.0 | 0.0 | 0.00 | 0.07 | 0.07 | 96 | 1012.2 |
| 20260906024200 | 77 | 297 | 0.0 | 0.0 | 0.00 | 0.07 | 0.07 | 95 | 1012.2 |
| 20260906024001 | 77 | 276 | 0.0 | 0.0 | 0.00 | 0.07 | 0.07 | 95 | 1012.1 |
| 20260906023800 | 77 | 276 | 0.0 | 0.0 | 0.00 | 0.07 | 0.07 | 95 | 1012.0 |
| 20260906023400 | 77 | 276 | 0.0 | 0.0 | 0.00 | 0.07 | 0.07 | 95 | 1012.0 |
| 20260906023201 | 77 | 276 | 0.0 | 0.0 | 0.00 | 0.07 | 0.07 | 95 | 1012.0 |
| 20260906023001 | 77 | 276 | 0.0 | 0.0 | 0.00 | 0.07 | 0.07 | 95 | 1012.0 |
| 20260906022801 | 77 | 276 | 0.0 | 0.0 | 0.00 | 0.07 | 0.07 | 95 | 1012.1 |
| 20260906022600 | 77 | 276 | 0.0 | 0.0 | 0.00 | 0.07 | 0.07 | 95 | 1012.0 |
| 20260906022401 | 77 | 276 | 0.0 | 0.0 | 0.00 | 0.07 | 0.07 | 94 | 1012.0 |
| 20260906022200 | 77 | 276 | 0.0 | 0.0 | 0.00 | 0.07 | 0.07 | 94 | 1012.0 |
| 20260906022001 | 77 | 276 | 0.0 | 0.0 | 0.00 | 0.07 | 0.07 | 95 | 1012.0 |
| 20260906021800 | 77 | 276 | 0.0 | 0.0 | 0.00 | 0.07 | 0.07 | 94 | 1012.0 |
| 20260906021600 | 77 | 276 | 0.0 | 0.0 | 0.00 | 0.07 | 0.07 | 94 | 1012.0 |
| 20260906021400 | 77 | 276 | 0.0 | 0.0 | 0.00 | 0.07 | 0.07 | 94 | 1011.9 |
| 20260906021201 | 77 | 276 | 0.0 | 0.0 | 0.00 | 0.07 | 0.07 | 93 | 1011.9 |
| 20260906021000 | 78 | 276 | 0.0 | 0.0 | 0.00 | 0.07 | 0.07 | 93 | 1011.8 |
| 20260906020801 | 78 | 276 | 0.0 | 0.0 | 0.00 | 0.07 | 0.07 | 93 | 1011.8 |
| 20260906020600 | 78 | 276 | 0.0 | 0.0 | 0.00 | 0.07 | 0.07 | 93 | 1011.7 |
| 20260906020401 | 78 | 276 | 0.0 | 0.0 | 0.00 | 0.07 | 0.07 | 93 | 1011.7 |
| 20260906020003 | 78 | 276 | 0.0 | 0.0 | 0.00 | 0.07 | 0.07 | 92 | 1011.7 |
| 20260906015800 | 78 | 276 | 0.0 | 0.0 | 0.00 | 0.07 | 0.07 | 92 | 1011.6 |
| 20260906015600 | 78 | 276 | 0.0 | 0.0 | 0.00 | 0.07 | 0.07 | 92 | 1011.6 |
| 20260906015400 | 78 | 276 | 0.0 | 0.0 | 0.00 | 0.07 | 0.07 | 93 | 1011.6 |
| 20260906015200 | 78 | 276 | 0.0 | 0.0 | 0.00 | 0.07 | 0.07 | 93 | 1011.5 |
| 20260906015002 | 78 | 276 | 0.0 | 0.0 | 0.00 | 0.07 | 0.07 | 93 | 1011.6 |
| 20260906014800 | 78 | 276 | 0.0 | 0.0 | 0.00 | 0.07 | 0.07 | 93 | 1011.5 |
| 20260906014600 | 78 | 276 | 0.0 | 0.0 | 0.00 | 0.07 | 0.07 | 93 | 1011.5 |
| 20260906014400 | 78 | 275 | 0.0 | 0.0 | 0.00 | 0.07 | 0.07 | 93 | 1011.5 |
| 20260906014201 | 78 | 275 | 0.0 | 0.0 | 0.00 | 0.07 | 0.07 | 93 | 1011.4 |
| 20260906014000 | 78 | 275 | 0.0 | 0.0 | 0.00 | 0.07 | 0.07 | 93 | 1011.4 |
| 20260906013800 | 78 | 275 | 0.0 | 0.0 | 0.00 | 0.07 | 0.07 | 92 | 1011.4 |
| 20260906013600 | 78 | 275 | 0.0 | 0.0 | 0.00 | 0.07 | 0.07 | 93 | 1011.3 |
| 20260906013400 | 78 | 275 | 0.0 | 0.0 | 0.00 | 0.07 | 0.07 | 93 | 1011.2 |
| 20260906013200 | 79 | 275 | 0.0 | 0.0 | 0.00 | 0.07 | 0.07 | 93 | 1011.2 |
| 20260906013000 | 79 | 275 | 0.0 | 0.0 | 0.00 | 0.07 | 0.07 | 93 | 1011.2 |
| 20260906012800 | 79 | 275 | 0.0 | 0.0 | 0.00 | 0.07 | 0.07 | 93 | 1011.2 |
| 20260906012600 | 79 | 275 | 0.0 | 0.0 | 0.00 | 0.07 | 0.07 | 93 | 1011.2 |
| 20260906012400 | 79 | 275 | 0.0 | 0.0 | 0.00 | 0.07 | 0.07 | 93 | 1011.2 |
| 20260906012200 | 79 | 275 | 0.0 | 0.0 | 0.00 | 0.07 | 0.07 | 93 | 1011.2 |
| 20260906012001 | 79 | 275 | 0.0 | 0.0 | 0.00 | 0.07 | 0.07 | 93 | 1011.2 |
| 20260906011800 | 79 | 275 | 0.0 | 0.0 | 0.00 | 0.07 | 0.07 | 93 | 1011.1 |
| 20260906011600 | 79 | 275 | 0.0 | 0.0 | 0.00 | 0.07 | 0.07 | 93 | 1011.2 |
| 20260906011400 | 79 | 275 | 0.0 | 0.0 | 0.00 | 0.07 | 0.07 | 92 | 1011.1 |
| 20260906011200 | 79 | 275 | 0.0 | 0.0 | 0.00 | 0.07 | 0.07 | 92 | 1011.1 |
| 20260906011000 | 79 | 275 | 0.0 | 0.0 | 0.00 | 0.07 | 0.07 | 92 | 1011.1 |
| 20260906010800 | 79 | 311 | 0.0 | 0.0 | 0.00 | 0.07 | 0.07 | 92 | 1011.0 |
| 20260906010600 | 79 | 311 | 0.0 | 0.0 | 0.00 | 0.07 | 0.07 | 92 | 1011.0 |
| 20260906010400 | 79 | 311 | 0.0 | 0.0 | 0.00 | 0.07 | 0.07 | 91 | 1010.9 |
| 20260906010003 | 80 | 311 | 0.0 | 0.0 | 0.00 | 0.07 | 0.07 | 91 | 1010.9 |
| 20260906005801 | 80 | 311 | 0.0 | 0.0 | 0.00 | 0.07 | 0.07 | 91 | 1010.9 |
| 20260906005600 | 80 | 311 | 0.0 | 0.0 | 0.00 | 0.07 | 0.07 | 90 | 1010.8 |
| 20260906005401 | 80 | 311 | 0.0 | 0.0 | 0.00 | 0.07 | 0.07 | 90 | 1010.8 |
| 20260906005200 | 81 | 283 | 0.0 | 0.0 | 0.00 | 0.07 | 0.07 | 90 | 1010.8 |
| 20260906005001 | 81 | 283 | 0.0 | 0.0 | 0.00 | 0.07 | 0.07 | 90 | 1010.8 |
| 20260906004800 | 81 | 283 | 0.0 | 0.0 | 0.00 | 0.07 | 0.07 | 90 | 1010.8 |
| 20260906004600 | 81 | 283 | 0.0 | 0.0 | 0.00 | 0.07 | 0.07 | 90 | 1010.7 |
| 20260906004400 | 81 | 283 | 0.0 | 0.0 | 0.00 | 0.07 | 0.07 | 89 | 1010.9 |
| 20260906004200 | 81 | 283 | 0.0 | 0.0 | 0.00 | 0.07 | 0.07 | 89 | 1010.8 |
| 20260906004000 | 81 | 283 | 0.0 | 0.0 | 0.00 | 0.07 | 0.07 | 89 | 1010.9 |
| 20260906003800 | 81 | 283 | 0.0 | 0.0 | 0.00 | 0.07 | 0.07 | 89 | 1010.9 |
| 20260906003600 | 82 | 283 | 0.0 | 0.0 | 0.00 | 0.07 | 0.07 | 89 | 1011.0 |
| 20260906003400 | 82 | 283 | 0.0 | 0.0 | 0.00 | 0.07 | 0.07 | 89 | 1011.0 |
| 20260906003200 | 82 | 283 | 0.0 | 0.0 | 0.00 | 0.07 | 0.07 | 89 | 1011.0 |
| 20260906003000 | 82 | 283 | 0.0 | 0.0 | 0.00 | 0.07 | 0.07 | 89 | 1011.0 |
| 20260906002800 | 82 | 283 | 0.0 | 0.0 | 0.00 | 0.07 | 0.07 | 89 | 1011.1 |
| 20260906002600 | 82 | 283 | 0.0 | 0.0 | 0.00 | 0.07 | 0.07 | 89 | 1011.1 |
| 20260906002400 | 83 | 283 | 0.0 | 0.0 | 0.00 | 0.07 | 0.07 | 89 | 1011.1 |
| 20260906002200 | 83 | 283 | 0.0 | 0.0 | 0.00 | 0.07 | 0.07 | 88 | 1011.2 |
| 20260906002000 | 83 | 283 | 0.0 | 0.0 | 0.00 | 0.07 | 0.07 | 88 | 1011.3 |
| 20260906001800 | 83 | 283 | 0.0 | 0.0 | 0.00 | 0.07 | 0.07 | 88 | 1011.3 |
| 20260906001600 | 83 | 283 | 0.0 | 0.0 | 0.00 | 0.07 | 0.07 | 87 | 1011.3 |
| 20260906001400 | 83 | 283 | 0.0 | 0.0 | 0.00 | 0.07 | 0.07 | 87 | 1011.3 |
| 20260906001000 | 83 | 283 | 0.0 | 0.0 | 0.00 | 0.07 | 0.07 | 87 | 1011.5 |
| 20260906000800 | 84 | 283 | 0.0 | 0.0 | 0.00 | 0.07 | 0.07 | 87 | 1011.5 |
| 20260906000600 | 84 | 283 | 0.0 | 0.0 | 0.00 | 0.07 | 0.07 | 87 | 1011.5 |
| 20260906000400 | 84 | 283 | 0.0 | 0.0 | 0.00 | 0.07 | 0.07 | 87 | 1011.5 |
| 20260906000003 | 84 | 283 | 0.0 | 0.0 | 0.00 | 0.07 | 0.07 | 86 | 1011.6 |
| 20260905235801 | 84 | 283 | 0.0 | 0.0 | 0.00 | 0.07 | 0.07 | 85 | 1011.5 |
| 20260905235601 | 84 | 283 | 0.0 | 0.0 | 0.00 | 0.07 | 0.07 | 85 | 1011.4 |
| 20260905235401 | 84 | 283 | 0.0 | 0.0 | 0.00 | 0.07 | 0.07 | 85 | 1011.5 |
| 20260905235200 | 84 | 283 | 0.0 | 0.0 | 0.00 | 0.07 | 0.07 | 85 | 1011.5 |
| 20260905234800 | 84 | 283 | 0.0 | 0.0 | 0.00 | 0.07 | 0.07 | 85 | 1011.5 |
| 20260905234603 | 84 | 283 | 0.0 | 0.0 | 0.00 | 0.07 | 0.07 | 85 | 1011.4 |
| 20260905234400 | 84 | 283 | 0.0 | 0.0 | 0.00 | 0.07 | 0.07 | 85 | 1011.5 |
| 20260905234201 | 84 | 283 | 0.0 | 0.0 | 0.00 | 0.07 | 0.07 | 84 | 1011.4 |
| 20260905234000 | 84 | 283 | 0.0 | 0.0 | 0.00 | 0.07 | 0.07 | 84 | 1011.5 |
| 20260905233600 | 85 | 283 | 0.0 | 0.0 | 0.00 | 0.07 | 0.07 | 84 | 1011.5 |
| 20260905233400 | 85 | 283 | 0.0 | 0.0 | 0.00 | 0.07 | 0.07 | 84 | 1011.5 |
| 20260905233200 | 85 | 283 | 0.0 | 0.0 | 0.00 | 0.07 | 0.07 | 83 | 1011.5 |
| 20260905233001 | 85 | 283 | 0.0 | 0.0 | 0.00 | 0.07 | 0.07 | 83 | 1011.6 |
| 20260905232800 | 85 | 283 | 0.0 | 0.0 | 0.00 | 0.07 | 0.07 | 83 | 1011.6 |
| 20260905232600 | 85 | 283 | 0.0 | 0.0 | 0.00 | 0.07 | 0.07 | 83 | 1011.6 |
| 20260905232400 | 85 | 283 | 0.0 | 0.0 | 0.00 | 0.07 | 0.07 | 82 | 1011.6 |
| 20260905232201 | 85 | 283 | 0.0 | 0.0 | 0.00 | 0.07 | 0.07 | 82 | 1011.6 |
| 20260905232000 | 85 | 283 | 0.0 | 0.0 | 0.00 | 0.07 | 0.07 | 82 | 1011.5 |
| 20260905231800 | 86 | 283 | 0.0 | 0.0 | 0.00 | 0.07 | 0.07 | 82 | 1011.5 |
| 20260905231400 | 86 | 283 | 0.0 | 0.0 | 0.00 | 0.07 | 0.07 | 80 | 1011.5 |
| 20260905231200 | 86 | 283 | 0.0 | 0.0 | 0.00 | 0.07 | 0.07 | 80 | 1011.5 |
| 20260905231001 | 86 | 283 | 0.0 | 0.0 | 0.00 | 0.07 | 0.07 | 79 | 1011.3 |
| 20260905230800 | 87 | 283 | 0.0 | 0.0 | 0.00 | 0.07 | 0.07 | 79 | 1011.3 |
| 20260905230601 | 87 | 283 | 0.0 | 0.0 | 0.00 | 0.07 | 0.07 | 79 | 1011.2 |
| 20260905230400 | 87 | 283 | 0.0 | 0.0 | 0.00 | 0.07 | 0.07 | 78 | 1011.2 |
| 20260905230201 | 87 | 283 | 0.0 | 0.0 | 0.00 | 0.07 | 0.07 | 78 | 1011.2 |
| 20260905230003 | 87 | 283 | 0.0 | 0.0 | 0.00 | 0.07 | 0.07 | 76 | 1011.2 |
| 20260905225800 | 87 | 283 | 0.0 | 0.0 | 0.00 | 0.07 | 0.07 | 76 | 1011.1 |
| 20260905225600 | 87 | 283 | 0.0 | 0.0 | 0.00 | 0.07 | 0.07 | 76 | 1011.1 |
| 20260905225400 | 87 | 283 | 0.0 | 0.0 | 0.00 | 0.07 | 0.07 | 76 | 1011.1 |
| 20260905225200 | 88 | 283 | 0.0 | 0.0 | 0.00 | 0.07 | 0.07 | 75 | 1011.1 |
| 20260905225000 | 88 | 283 | 0.0 | 0.0 | 0.00 | 0.07 | 0.07 | 74 | 1011.1 |
| 20260905224800 | 88 | 283 | 0.0 | 0.0 | 0.00 | 0.07 | 0.07 | 74 | 1011.1 |
| 20260905224600 | 88 | 283 | 0.0 | 0.0 | 0.00 | 0.07 | 0.07 | 74 | 1011.1 |
| 20260905224400 | 88 | 283 | 0.0 | 0.0 | 0.00 | 0.07 | 0.07 | 73 | 1011.2 |
| 20260905224200 | 88 | 283 | 0.0 | 0.0 | 0.00 | 0.07 | 0.07 | 72 | 1011.2 |
| 20260905223800 | 89 | 283 | 0.0 | 0.0 | 0.00 | 0.07 | 0.07 | 72 | 1011.1 |
| 20260905223602 | 89 | 283 | 0.0 | 0.0 | 0.00 | 0.07 | 0.07 | 71 | 1011.1 |
| 20260905223400 | 89 | 283 | 0.0 | 0.0 | 0.00 | 0.07 | 0.07 | 70 | 1011.0 |
| 20260905223200 | 90 | 283 | 0.0 | 0.0 | 0.00 | 0.07 | 0.07 | 69 | 1011.0 |
| 20260905223000 | 90 | 283 | 0.0 | 0.0 | 0.00 | 0.07 | 0.07 | 69 | 1010.9 |
| 20260905222801 | 91 | 297 | 0.0 | 0.0 | 0.00 | 0.07 | 0.07 | 68 | 1011.0 |
| 20260905222600 | 91 | 297 | 0.0 | 0.0 | 0.00 | 0.07 | 0.07 | 66 | 1011.0 |
| 20260905222401 | 92 | 297 | 0.0 | 0.0 | 0.00 | 0.07 | 0.07 | 65 | 1011.0 |
| 20260905222001 | 93 | 325 | 0.0 | 0.0 | 0.00 | 0.07 | 0.07 | 65 | 1011.1 |
| 20260905221759 | 93 | 271 | 0.0 | 0.0 | 0.00 | 0.07 | 0.07 | 63 | 1011.1 |
| 20260905221601 | 93 | 271 | 0.0 | 0.0 | 0.00 | 0.07 | 0.07 | 64 | 1011.1 |
| 20260905221400 | 93 | 271 | 0.0 | 0.0 | 0.00 | 0.07 | 0.07 | 62 | 1011.1 |
| 20260905221201 | 94 | 270 | 0.0 | 0.0 | 0.00 | 0.07 | 0.07 | 62 | 1011.0 |
| 20260905221000 | 94 | 269 | 0.0 | 1.0 | 0.00 | 0.07 | 0.07 | 64 | 1011.0 |
| 20260905220801 | 94 | 269 | 0.0 | 1.0 | 0.00 | 0.07 | 0.07 | 61 | 1011.0 |
| 20260905220600 | 94 | 263 | 0.0 | 1.0 | 0.00 | 0.07 | 0.07 | 62 | 1011.0 |
| 20260905220200 | 94 | 247 | 0.0 | 1.0 | 0.00 | 0.07 | 0.07 | 61 | 1011.0 |
| 20260905220004 | 94 | 248 | 0.0 | 1.0 | 0.00 | 0.07 | 0.07 | 62 | 1011.0 |
| 20260905215759 | 94 | 247 | 1.0 | 2.0 | 0.00 | 0.07 | 0.07 | 62 | 1011.1 |
| 20260905215559 | 94 | 247 | 1.0 | 5.0 | 0.00 | 0.07 | 0.07 | 60 | 1011.1 |
| 20260905215359 | 94 | 247 | 1.0 | 5.0 | 0.00 | 0.07 | 0.07 | 61 | 1011.1 |
| 20260905215200 | 94 | 283 | 1.0 | 5.0 | 0.00 | 0.07 | 0.07 | 62 | 1011.1 |
| 20260905214959 | 94 | 328 | 1.0 | 5.0 | 0.00 | 0.07 | 0.07 | 59 | 1011.2 |
| 20260905214800 | 94 | 7 | 1.0 | 5.0 | 0.00 | 0.07 | 0.07 | 59 | 1011.3 |
| 20260905214559 | 94 | 237 | 1.0 | 3.0 | 0.00 | 0.07 | 0.07 | 59 | 1011.3 |
| 20260905214359 | 94 | 207 | 1.0 | 3.0 | 0.00 | 0.07 | 0.07 | 58 | 1011.3 |
| 20260905214159 | 95 | 252 | 1.0 | 3.0 | 0.00 | 0.07 | 0.07 | 58 | 1011.2 |
| 20260905213759 | 94 | 20 | 2.0 | 5.0 | 0.00 | 0.07 | 0.07 | 59 | 1011.2 |
| 20260905213559 | 94 | 51 | 2.0 | 5.0 | 0.00 | 0.07 | 0.07 | 60 | 1011.2 |
| 20260905213359 | 94 | 264 | 2.0 | 5.0 | 0.00 | 0.07 | 0.07 | 58 | 1011.3 |
| 20260905213201 | 94 | 257 | 2.0 | 5.0 | 0.00 | 0.07 | 0.07 | 59 | 1011.3 |
| 20260905212959 | 94 | 28 | 2.0 | 6.0 | 0.00 | 0.07 | 0.07 | 58 | 1011.2 |
| 20260905212559 | 94 | 271 | 2.0 | 6.0 | 0.00 | 0.07 | 0.07 | 58 | 1011.2 |
| 20260905212359 | 94 | 3 | 3.0 | 6.0 | 0.00 | 0.07 | 0.07 | 59 | 1011.1 |
| 20260905211959 | 94 | 316 | 3.0 | 9.0 | 0.00 | 0.07 | 0.07 | 59 | 1011.2 |
| 20260905211759 | 94 | 6 | 3.0 | 9.0 | 0.00 | 0.07 | 0.07 | 58 | 1011.2 |
| 20260905211359 | 94 | 27 | 3.0 | 9.0 | 0.00 | 0.07 | 0.07 | 58 | 1011.1 |
| 20260905211159 | 94 | 77 | 2.0 | 8.0 | 0.00 | 0.07 | 0.07 | 58 | 1011.2 |
| 20260905210959 | 95 | 271 | 2.0 | 8.0 | 0.00 | 0.07 | 0.07 | 57 | 1011.3 |
| 20260905210759 | 95 | 346 | 2.0 | 5.0 | 0.00 | 0.07 | 0.07 | 58 | 1011.3 |
| 20260905210559 | 95 | 293 | 2.0 | 5.0 | 0.00 | 0.07 | 0.07 | 58 | 1011.3 |
| 20260905210359 | 95 | 295 | 1.0 | 5.0 | 0.00 | 0.07 | 0.07 | 57 | 1011.2 |
| 20260905210159 | 95 | 272 | 2.0 | 5.0 | 0.00 | 0.07 | 0.07 | 58 | 1011.2 |
| 20260905210001 | 95 | 340 | 2.0 | 7.0 | 0.00 | 0.07 | 0.07 | 57 | 1011.3 |
| 20260905205800 | 95 | 49 | 2.0 | 7.0 | 0.00 | 0.07 | 0.07 | 59 | 1011.3 |
| 20260905205359 | 95 | 300 | 2.0 | 7.0 | 0.00 | 0.07 | 0.07 | 58 | 1011.3 |
| 20260905205000 | 95 | 55 | 1.0 | 5.0 | 0.00 | 0.07 | 0.07 | 57 | 1011.4 |
| 20260905204759 | 95 | 45 | 1.0 | 5.0 | 0.00 | 0.07 | 0.07 | 59 | 1011.4 |
| 20260905204600 | 95 | 201 | 1.0 | 6.0 | 0.00 | 0.07 | 0.07 | 58 | 1011.4 |
| 20260905204359 | 95 | 12 | 2.0 | 6.0 | 0.00 | 0.07 | 0.07 | 57 | 1011.4 |
| 20260905204159 | 95 | 261 | 2.0 | 6.0 | 0.00 | 0.07 | 0.07 | 58 | 1011.5 |
| 20260905203800 | 94 | 165 | 2.0 | 6.0 | 0.00 | 0.07 | 0.07 | 59 | 1011.4 |
| 20260905203559 | 94 | 30 | 2.0 | 5.0 | 0.00 | 0.07 | 0.07 | 58 | 1011.5 |
| 20260905203359 | 94 | 283 | 2.0 | 5.0 | 0.00 | 0.07 | 0.07 | 58 | 1011.6 |
| 20260905203159 | 94 | 30 | 2.0 | 5.0 | 0.00 | 0.07 | 0.07 | 57 | 1011.6 |
| 20260905202959 | 94 | 293 | 2.0 | 5.0 | 0.00 | 0.07 | 0.07 | 58 | 1011.6 |
| 20260905202759 | 95 | 265 | 2.0 | 6.0 | 0.00 | 0.07 | 0.07 | 62 | 1011.7 |
| 20260905202559 | 94 | 297 | 2.0 | 8.0 | 0.00 | 0.07 | 0.07 | 58 | 1011.7 |
| 20260905202359 | 94 | 299 | 2.0 | 8.0 | 0.00 | 0.07 | 0.07 | 58 | 1011.7 |
| 20260905202159 | 94 | 317 | 2.0 | 8.0 | 0.00 | 0.07 | 0.07 | 58 | 1011.7 |
| 20260905201759 | 94 | 213 | 2.0 | 6.0 | 0.00 | 0.07 | 0.07 | 60 | 1011.8 |
| 20260905201559 | 94 | 226 | 2.0 | 6.0 | 0.00 | 0.07 | 0.07 | 58 | 1011.8 |
| 20260905201359 | 94 | 275 | 2.0 | 6.0 | 0.00 | 0.07 | 0.07 | 59 | 1011.9 |
| 20260905201159 | 94 | 311 | 2.0 | 6.0 | 0.00 | 0.07 | 0.07 | 59 | 1011.9 |
| 20260905200959 | 94 | 50 | 3.0 | 7.0 | 0.00 | 0.07 | 0.07 | 58 | 1011.9 |
| 20260905200759 | 94 | 360 | 3.0 | 7.0 | 0.00 | 0.07 | 0.07 | 58 | 1011.8 |
| 20260905200559 | 94 | 13 | 2.0 | 7.0 | 0.00 | 0.07 | 0.07 | 58 | 1011.9 |
| 20260905200359 | 94 | 327 | 2.0 | 7.0 | 0.00 | 0.07 | 0.07 | 58 | 1011.9 |
| 20260905200159 | 94 | 301 | 2.0 | 6.0 | 0.00 | 0.07 | 0.07 | 58 | 1011.9 |
| 20260905200002 | 95 | 50 | 1.0 | 5.0 | 0.00 | 0.07 | 0.07 | 61 | 1011.9 |
| 20260905195559 | 94 | 242 | 2.0 | 6.0 | 0.00 | 0.07 | 0.07 | 59 | 1012.0 |
| 20260905195400 | 94 | 241 | 2.0 | 6.0 | 0.00 | 0.07 | 0.07 | 59 | 1012.0 |
| 20260905195000 | 94 | 194 | 2.0 | 6.0 | 0.00 | 0.07 | 0.07 | 59 | 1012.1 |
| 20260905194759 | 94 | 201 | 2.0 | 6.0 | 0.00 | 0.07 | 0.07 | 58 | 1012.1 |
| 20260905194359 | 94 | 150 | 2.0 | 4.0 | 0.00 | 0.07 | 0.07 | 60 | 1012.1 |
| 20260905194200 | 94 | 44 | 2.0 | 4.0 | 0.00 | 0.07 | 0.07 | 58 | 1012.2 |
| 20260905194000 | 94 | 349 | 2.0 | 5.0 | 0.00 | 0.07 | 0.07 | 61 | 1012.2 |
| 20260905193759 | 94 | 291 | 2.0 | 5.0 | 0.00 | 0.07 | 0.07 | 64 | 1012.2 |
| 20260905193559 | 94 | 246 | 2.0 | 5.0 | 0.00 | 0.07 | 0.07 | 62 | 1012.3 |
| 20260905193359 | 94 | 147 | 2.0 | 5.0 | 0.00 | 0.07 | 0.07 | 59 | 1012.3 |
| 20260905193159 | 94 | 158 | 2.0 | 4.0 | 0.00 | 0.07 | 0.07 | 60 | 1012.4 |
| 20260905192959 | 94 | 126 | 2.0 | 7.0 | 0.00 | 0.07 | 0.07 | 60 | 1012.4 |
| 20260905192559 | 93 | 154 | 2.0 | 7.0 | 0.00 | 0.07 | 0.07 | 61 | 1012.5 |
| 20260905192359 | 93 | 139 | 2.0 | 7.0 | 0.00 | 0.07 | 0.07 | 61 | 1012.6 |
| 20260905192159 | 93 | 250 | 2.0 | 7.0 | 0.00 | 0.07 | 0.07 | 61 | 1012.6 |
| 20260905191759 | 93 | 312 | 2.0 | 5.0 | 0.00 | 0.07 | 0.07 | 62 | 1012.6 |
| 20260905191559 | 93 | 293 | 1.0 | 5.0 | 0.00 | 0.07 | 0.07 | 60 | 1012.6 |
| 20260905191159 | 93 | 343 | 1.0 | 4.0 | 0.00 | 0.07 | 0.07 | 60 | 1012.7 |
| 20260905190959 | 93 | 13 | 1.0 | 5.0 | 0.00 | 0.07 | 0.07 | 59 | 1012.7 |
| 20260905190759 | 93 | 196 | 1.0 | 5.0 | 0.00 | 0.07 | 0.07 | 62 | 1012.7 |
| 20260905190600 | 93 | 257 | 2.0 | 5.0 | 0.00 | 0.07 | 0.07 | 59 | 1012.7 |
| 20260905190359 | 93 | 150 | 2.0 | 5.0 | 0.00 | 0.07 | 0.07 | 60 | 1012.8 |
| 20260905190200 | 93 | 155 | 2.0 | 5.0 | 0.00 | 0.07 | 0.07 | 60 | 1012.8 |
| 20260905190002 | 92 | 203 | 2.0 | 5.0 | 0.00 | 0.07 | 0.07 | 61 | 1012.8 |
| 20260905185800 | 92 | 89 | 2.0 | 5.0 | 0.00 | 0.07 | 0.07 | 61 | 1012.8 |
| 20260905185559 | 92 | 311 | 2.0 | 5.0 | 0.00 | 0.07 | 0.07 | 62 | 1012.8 |
| 20260905185359 | 92 | 328 | 2.0 | 5.0 | 0.00 | 0.07 | 0.07 | 62 | 1012.8 |
| 20260905185000 | 92 | 307 | 2.0 | 6.0 | 0.00 | 0.07 | 0.07 | 61 | 1012.9 |
| 20260905184759 | 92 | 304 | 2.0 | 6.0 | 0.00 | 0.07 | 0.07 | 62 | 1013.0 |
| 20260905184359 | 92 | 271 | 2.0 | 6.0 | 0.00 | 0.07 | 0.07 | 60 | 1013.1 |
| 20260905183959 | 92 | 242 | 3.0 | 6.0 | 0.00 | 0.07 | 0.07 | 64 | 1013.2 |
| 20260905183801 | 92 | 236 | 3.0 | 6.0 | 0.00 | 0.07 | 0.07 | 63 | 1013.2 |
| 20260905183559 | 92 | 168 | 3.0 | 6.0 | 0.00 | 0.07 | 0.07 | 62 | 1013.2 |
| 20260905183359 | 92 | 219 | 3.0 | 6.0 | 0.00 | 0.07 | 0.07 | 60 | 1013.2 |
| 20260905183201 | 92 | 218 | 2.0 | 6.0 | 0.00 | 0.07 | 0.07 | 61 | 1013.2 |
| 20260905182959 | 92 | 231 | 3.0 | 6.0 | 0.00 | 0.07 | 0.07 | 64 | 1013.2 |
| 20260905182800 | 92 | 77 | 3.0 | 6.0 | 0.00 | 0.07 | 0.07 | 65 | 1013.2 |
| 20260905182600 | 92 | 46 | 3.0 | 6.0 | 0.00 | 0.07 | 0.07 | 61 | 1013.2 |
| 20260905182400 | 92 | 127 | 3.0 | 6.0 | 0.00 | 0.07 | 0.07 | 60 | 1013.2 |
| 20260905182202 | 92 | 121 | 3.0 | 6.0 | 0.00 | 0.07 | 0.07 | 60 | 1013.3 |
| 20260905181959 | 92 | 181 | 2.0 | 6.0 | 0.00 | 0.07 | 0.07 | 62 | 1013.4 |
| 20260905181759 | 92 | 148 | 2.0 | 6.0 | 0.00 | 0.07 | 0.07 | 62 | 1013.4 |
| 20260905181559 | 91 | 37 | 2.0 | 5.0 | 0.00 | 0.07 | 0.07 | 60 | 1013.4 |
| 20260905181359 | 92 | 30 | 1.0 | 5.0 | 0.00 | 0.07 | 0.07 | 60 | 1013.5 |
| 20260905181159 | 91 | 205 | 1.0 | 4.0 | 0.00 | 0.07 | 0.07 | 62 | 1013.4 |
| 20260905180759 | 91 | 239 | 1.0 | 5.0 | 0.00 | 0.07 | 0.07 | 61 | 1013.5 |
| 20260905180159 | 91 | 332 | 3.0 | 6.0 | 0.00 | 0.07 | 0.07 | 61 | 1013.5 |
| 20260905180004 | 91 | 257 | 3.0 | 6.0 | 0.00 | 0.07 | 0.07 | 62 | 1013.5 |
| 20260905175800 | 91 | 278 | 3.0 | 6.0 | 0.00 | 0.07 | 0.07 | 65 | 1013.5 |
| 20260905175359 | 90 | 201 | 4.0 | 6.0 | 0.00 | 0.07 | 0.07 | 62 | 1013.5 |
| 20260905174959 | 90 | 149 | 4.0 | 11.0 | 0.00 | 0.07 | 0.07 | 64 | 1013.6 |
| 20260905174759 | 90 | 115 | 4.0 | 11.0 | 0.00 | 0.07 | 0.07 | 64 | 1013.6 |
| 20260905174401 | 90 | 136 | 3.0 | 11.0 | 0.00 | 0.07 | 0.07 | 63 | 1013.6 |
| 20260905174000 | 90 | 136 | 3.0 | 8.0 | 0.00 | 0.07 | 0.07 | 63 | 1013.7 |
| 20260905173759 | 89 | 160 | 4.0 | 8.0 | 0.00 | 0.07 | 0.07 | 64 | 1013.7 |
| 20260905173359 | 89 | 245 | 5.0 | 8.0 | 0.00 | 0.07 | 0.07 | 63 | 1013.7 |
| 20260905173200 | 89 | 137 | 4.0 | 8.0 | 0.00 | 0.07 | 0.07 | 64 | 1013.7 |
| 20260905172959 | 89 | 182 | 4.0 | 8.0 | 0.00 | 0.07 | 0.07 | 64 | 1013.7 |
| 20260905172759 | 89 | 156 | 4.0 | 8.0 | 0.00 | 0.07 | 0.07 | 64 | 1013.7 |
| 20260905172559 | 89 | 147 | 4.0 | 8.0 | 0.00 | 0.07 | 0.07 | 65 | 1013.8 |
| 20260905172359 | 89 | 153 | 4.0 | 7.0 | 0.00 | 0.07 | 0.07 | 66 | 1013.8 |
| 20260905172159 | 89 | 197 | 4.0 | 7.0 | 0.00 | 0.07 | 0.07 | 68 | 1013.8 |
| 20260905172001 | 89 | 118 | 4.0 | 6.0 | 0.00 | 0.07 | 0.07 | 65 | 1013.8 |
| 20260905171759 | 89 | 120 | 4.0 | 6.0 | 0.00 | 0.07 | 0.07 | 65 | 1013.9 |
| 20260905171559 | 89 | 124 | 4.0 | 7.0 | 0.00 | 0.07 | 0.07 | 65 | 1013.9 |
| 20260905171359 | 89 | 172 | 4.0 | 7.0 | 0.00 | 0.07 | 0.07 | 65 | 1013.9 |
| 20260905170959 | 88 | 200 | 4.0 | 8.0 | 0.00 | 0.07 | 0.07 | 64 | 1013.9 |
| 20260905170759 | 88 | 176 | 4.0 | 8.0 | 0.00 | 0.07 | 0.07 | 65 | 1013.8 |
| 20260905170559 | 88 | 255 | 4.0 | 8.0 | 0.00 | 0.07 | 0.07 | 66 | 1013.8 |
| 20260905170359 | 88 | 209 | 5.0 | 7.0 | 0.00 | 0.07 | 0.07 | 67 | 1013.8 |
| 20260905170159 | 88 | 200 | 5.0 | 9.0 | 0.00 | 0.07 | 0.07 | 67 | 1013.9 |
| 20260905170003 | 88 | 206 | 5.0 | 10.0 | 0.00 | 0.07 | 0.07 | 68 | 1013.9 |
| 20260905165759 | 88 | 215 | 4.0 | 10.0 | 0.00 | 0.07 | 0.07 | 66 | 1014.0 |
| 20260905165559 | 88 | 181 | 4.0 | 10.0 | 0.00 | 0.07 | 0.07 | 66 | 1014.0 |
| 20260905165359 | 88 | 106 | 4.0 | 10.0 | 0.00 | 0.07 | 0.07 | 67 | 1014.1 |
| 20260905165159 | 88 | 96 | 4.0 | 10.0 | 0.00 | 0.07 | 0.07 | 67 | 1014.2 |
| 20260905165001 | 88 | 150 | 4.0 | 9.0 | 0.00 | 0.07 | 0.07 | 67 | 1014.2 |
| 20260905164759 | 88 | 137 | 5.0 | 9.0 | 0.00 | 0.07 | 0.07 | 68 | 1014.3 |
| 20260905164600 | 88 | 141 | 5.0 | 9.0 | 0.00 | 0.07 | 0.07 | 66 | 1014.3 |
| 20260905164358 | 87 | 117 | 4.0 | 8.0 | 0.00 | 0.07 | 0.07 | 68 | 1014.4 |
| 20260905164200 | 87 | 180 | 4.0 | 8.0 | 0.00 | 0.07 | 0.07 | 68 | 1014.4 |
| 20260905163958 | 87 | 143 | 4.0 | 7.0 | 0.00 | 0.07 | 0.07 | 68 | 1014.4 |
| 20260905163758 | 87 | 124 | 4.0 | 7.0 | 0.00 | 0.07 | 0.07 | 68 | 1014.4 |
| 20260905163559 | 87 | 139 | 4.0 | 7.0 | 0.00 | 0.07 | 0.07 | 67 | 1014.5 |
| 20260905163358 | 87 | 125 | 4.0 | 8.0 | 0.00 | 0.07 | 0.07 | 66 | 1014.5 |
| 20260905163200 | 87 | 191 | 4.0 | 8.0 | 0.00 | 0.07 | 0.07 | 68 | 1014.6 |
| 20260905162959 | 87 | 162 | 3.0 | 8.0 | 0.00 | 0.07 | 0.07 | 70 | 1014.6 |
| 20260905162759 | 87 | 144 | 4.0 | 8.0 | 0.00 | 0.07 | 0.07 | 70 | 1014.7 |
| 20260905162558 | 87 | 115 | 3.0 | 8.0 | 0.00 | 0.07 | 0.07 | 69 | 1014.6 |
| 20260905162359 | 86 | 162 | 3.0 | 6.0 | 0.00 | 0.07 | 0.07 | 71 | 1014.6 |
| 20260905161959 | 86 | 144 | 4.0 | 9.0 | 0.00 | 0.07 | 0.07 | 71 | 1014.7 |
| 20260905161759 | 86 | 113 | 4.0 | 9.0 | 0.00 | 0.07 | 0.07 | 70 | 1014.6 |
| 20260905161159 | 85 | 132 | 6.0 | 9.0 | 0.00 | 0.07 | 0.07 | 70 | 1014.7 |
| 20260905160959 | 85 | 135 | 6.0 | 9.0 | 0.00 | 0.07 | 0.07 | 70 | 1014.8 |
| 20260905160759 | 85 | 110 | 5.0 | 11.0 | 0.00 | 0.07 | 0.07 | 70 | 1014.8 |
| 20260905160558 | 85 | 134 | 5.0 | 11.0 | 0.00 | 0.07 | 0.07 | 71 | 1014.8 |
| 20260905160359 | 85 | 195 | 4.0 | 11.0 | 0.00 | 0.07 | 0.07 | 70 | 1014.7 |
| 20260905160158 | 85 | 169 | 3.0 | 11.0 | 0.00 | 0.07 | 0.07 | 71 | 1014.7 |
| 20260905160002 | 85 | 118 | 3.0 | 11.0 | 0.00 | 0.07 | 0.07 | 73 | 1014.7 |
| 20260905155759 | 85 | 124 | 3.0 | 6.0 | 0.00 | 0.07 | 0.07 | 71 | 1014.6 |
| 20260905155559 | 85 | 113 | 3.0 | 6.0 | 0.00 | 0.07 | 0.07 | 72 | 1014.6 |
| 20260905155359 | 85 | 51 | 3.0 | 6.0 | 0.00 | 0.07 | 0.07 | 72 | 1014.6 |
| 20260905155159 | 85 | 102 | 3.0 | 7.0 | 0.00 | 0.07 | 0.07 | 72 | 1014.7 |
| 20260905154959 | 85 | 112 | 4.0 | 7.0 | 0.00 | 0.07 | 0.07 | 71 | 1014.7 |
| 20260905154759 | 84 | 134 | 4.0 | 10.0 | 0.00 | 0.07 | 0.07 | 71 | 1014.8 |
| 20260905154559 | 84 | 101 | 5.0 | 10.0 | 0.00 | 0.07 | 0.07 | 73 | 1014.8 |
| 20260905154358 | 84 | 73 | 5.0 | 10.0 | 0.00 | 0.07 | 0.07 | 73 | 1014.8 |
| 20260905154158 | 84 | 111 | 6.0 | 10.0 | 0.00 | 0.07 | 0.07 | 73 | 1014.8 |
| 20260905153959 | 84 | 92 | 5.0 | 10.0 | 0.00 | 0.07 | 0.07 | 72 | 1014.8 |
| 20260905153800 | 84 | 143 | 5.0 | 9.0 | 0.00 | 0.07 | 0.07 | 72 | 1014.8 |
| 20260905153358 | 84 | 112 | 4.0 | 9.0 | 0.00 | 0.07 | 0.07 | 74 | 1014.8 |
| 20260905153159 | 84 | 133 | 4.0 | 8.0 | 0.00 | 0.07 | 0.07 | 73 | 1014.8 |
| 20260905152959 | 83 | 154 | 4.0 | 10.0 | 0.00 | 0.07 | 0.07 | 73 | 1014.8 |
| 20260905152759 | 83 | 154 | 4.0 | 10.0 | 0.00 | 0.07 | 0.07 | 74 | 1014.9 |
| 20260905152559 | 83 | 122 | 4.0 | 10.0 | 0.00 | 0.07 | 0.07 | 74 | 1014.9 |
| 20260905152359 | 83 | 157 | 4.0 | 10.0 | 0.00 | 0.07 | 0.07 | 75 | 1014.9 |
| 20260905152159 | 83 | 134 | 5.0 | 10.0 | 0.00 | 0.07 | 0.07 | 75 | 1014.9 |
| 20260905151959 | 83 | 168 | 5.0 | 10.0 | 0.00 | 0.07 | 0.07 | 76 | 1014.9 |
| 20260905151758 | 83 | 112 | 5.0 | 10.0 | 0.00 | 0.07 | 0.07 | 75 | 1014.9 |
| 20260905151559 | 83 | 121 | 5.0 | 10.0 | 0.00 | 0.07 | 0.07 | 75 | 1015.0 |
| 20260905151358 | 83 | 93 | 5.0 | 10.0 | 0.00 | 0.07 | 0.07 | 76 | 1014.9 |
| 20260905151200 | 82 | 134 | 5.0 | 10.0 | 0.00 | 0.07 | 0.07 | 75 | 1014.8 |
| 20260905150959 | 82 | 162 | 4.0 | 8.0 | 0.00 | 0.07 | 0.07 | 75 | 1014.9 |
| 20260905150759 | 82 | 120 | 4.0 | 9.0 | 0.00 | 0.07 | 0.07 | 75 | 1014.9 |
| 20260905150559 | 82 | 115 | 4.0 | 9.0 | 0.00 | 0.07 | 0.07 | 75 | 1015.0 |
| 20260905150359 | 82 | 122 | 4.0 | 9.0 | 0.00 | 0.07 | 0.07 | 74 | 1015.0 |
| 20260905150159 | 82 | 133 | 4.0 | 9.0 | 0.00 | 0.07 | 0.07 | 75 | 1015.0 |
| 20260905150003 | 82 | 167 | 4.0 | 9.0 | 0.00 | 0.07 | 0.07 | 76 | 1015.0 |
| 20260905145759 | 82 | 124 | 4.0 | 9.0 | 0.00 | 0.07 | 0.07 | 75 | 1015.1 |
| 20260905145559 | 82 | 45 | 5.0 | 10.0 | 0.00 | 0.07 | 0.07 | 75 | 1015.0 |
| 20260905145358 | 81 | 101 | 5.0 | 14.0 | 0.00 | 0.07 | 0.07 | 74 | 1015.1 |
| 20260905145158 | 81 | 98 | 5.0 | 14.0 | 0.00 | 0.07 | 0.07 | 75 | 1015.1 |
| 20260905144959 | 81 | 126 | 5.0 | 14.0 | 0.00 | 0.07 | 0.07 | 78 | 1015.1 |
| 20260905144759 | 81 | 101 | 5.0 | 14.0 | 0.00 | 0.07 | 0.07 | 76 | 1015.1 |
| 20260905144558 | 81 | 111 | 4.0 | 10.0 | 0.00 | 0.07 | 0.07 | 78 | 1015.2 |
| 20260905144358 | 81 | 118 | 4.0 | 9.0 | 0.00 | 0.07 | 0.07 | 79 | 1015.3 |
| 20260905143958 | 80 | 86 | 3.0 | 6.0 | 0.00 | 0.07 | 0.07 | 81 | 1015.3 |
| 20260905143559 | 80 | 80 | 3.0 | 7.0 | 0.00 | 0.07 | 0.07 | 84 | 1015.2 |
| 20260905143400 | 79 | 111 | 3.0 | 8.0 | 0.00 | 0.07 | 0.07 | 84 | 1015.1 |
| 20260905143158 | 79 | 101 | 4.0 | 10.0 | 0.00 | 0.07 | 0.07 | 85 | 1015.2 |
| 20260905142959 | 79 | 82 | 4.0 | 10.0 | 0.00 | 0.07 | 0.07 | 84 | 1015.2 |
| 20260905142759 | 79 | 99 | 4.0 | 10.0 | 0.00 | 0.07 | 0.07 | 85 | 1015.2 |
| 20260905142559 | 79 | 83 | 4.0 | 10.0 | 0.00 | 0.07 | 0.07 | 85 | 1015.1 |
| 20260905142358 | 79 | 101 | 4.0 | 10.0 | 0.00 | 0.07 | 0.07 | 86 | 1015.1 |
| 20260905142159 | 78 | 112 | 4.0 | 10.0 | 0.00 | 0.07 | 0.07 | 86 | 1015.1 |
| 20260905141958 | 78 | 105 | 5.0 | 10.0 | 0.00 | 0.07 | 0.07 | 87 | 1015.1 |
| 20260905141759 | 78 | 107 | 4.0 | 10.0 | 0.00 | 0.07 | 0.07 | 86 | 1015.1 |
| 20260905141559 | 78 | 101 | 4.0 | 10.0 | 0.00 | 0.07 | 0.07 | 87 | 1015.2 |
| 20260905141359 | 78 | 105 | 4.0 | 10.0 | 0.00 | 0.07 | 0.07 | 88 | 1015.2 |
| 20260905141200 | 78 | 40 | 4.0 | 10.0 | 0.00 | 0.07 | 0.07 | 87 | 1015.3 |
| 20260905140959 | 78 | 47 | 4.0 | 10.0 | 0.00 | 0.07 | 0.07 | 87 | 1015.3 |
| 20260905140759 | 78 | 47 | 4.0 | 11.0 | 0.00 | 0.07 | 0.07 | 88 | 1015.3 |
| 20260905140559 | 78 | 53 | 4.0 | 11.0 | 0.00 | 0.07 | 0.07 | 88 | 1015.3 |
| 20260905140358 | 78 | 63 | 5.0 | 12.0 | 0.00 | 0.07 | 0.07 | 88 | 1015.3 |
| 20260905140159 | 78 | 98 | 5.0 | 12.0 | 0.00 | 0.07 | 0.07 | 89 | 1015.4 |
| 20260905140001 | 77 | 25 | 5.0 | 12.0 | 0.00 | 0.07 | 0.07 | 89 | 1015.3 |
| 20260905135758 | 77 | 106 | 4.0 | 12.0 | 0.00 | 0.07 | 0.07 | 89 | 1015.3 |
| 20260905135559 | 77 | 119 | 4.0 | 12.0 | 0.00 | 0.07 | 0.07 | 90 | 1015.4 |
| 20260905135158 | 77 | 58 | 5.0 | 9.0 | 0.00 | 0.07 | 0.07 | 91 | 1015.4 |
| 20260905134800 | 77 | 110 | 5.0 | 13.0 | 0.00 | 0.07 | 0.07 | 91 | 1015.4 |
| 20260905134359 | 77 | 49 | 5.0 | 14.0 | 0.01 | 0.07 | 0.07 | 91 | 1015.4 |
| 20260905134158 | 77 | 58 | 5.0 | 14.0 | 0.02 | 0.07 | 0.07 | 92 | 1015.3 |
| 20260905134001 | 77 | 28 | 5.0 | 14.0 | 0.02 | 0.07 | 0.07 | 94 | 1015.4 |
| 20260905133759 | 76 | 96 | 6.0 | 14.0 | 0.03 | 0.07 | 0.07 | 94 | 1015.4 |
| 20260905133559 | 76 | 49 | 6.0 | 14.0 | 0.04 | 0.07 | 0.07 | 93 | 1015.5 |
| 20260905133358 | 76 | 58 | 6.0 | 14.0 | 0.07 | 0.07 | 0.07 | 93 | 1015.5 |
| 20260905133159 | 76 | 44 | 7.0 | 13.0 | 0.07 | 0.07 | 0.07 | 95 | 1015.5 |
| 20260905132959 | 76 | 44 | 7.0 | 15.0 | 0.07 | 0.07 | 0.07 | 95 | 1015.5 |
| 20260905132359 | 75 | 43 | 6.0 | 15.0 | 0.07 | 0.07 | 0.07 | 96 | 1015.5 |
| 20260905132159 | 75 | 40 | 6.0 | 14.0 | 0.07 | 0.07 | 0.07 | 97 | 1015.5 |
| 20260905131959 | 75 | 63 | 5.0 | 9.0 | 0.07 | 0.07 | 0.07 | 97 | 1015.4 |
| 20260905131758 | 75 | 60 | 5.0 | 9.0 | 0.07 | 0.07 | 0.07 | 97 | 1015.4 |
| 20260905131600 | 75 | 72 | 5.0 | 9.0 | 0.07 | 0.07 | 0.07 | 98 | 1015.4 |
| 20260905131359 | 75 | 48 | 6.0 | 11.0 | 0.07 | 0.07 | 0.07 | 98 | 1015.4 |
| 20260905131159 | 75 | 51 | 7.0 | 13.0 | 0.07 | 0.07 | 0.07 | 98 | 1015.4 |
| 20260905130959 | 75 | 60 | 7.0 | 15.0 | 0.07 | 0.07 | 0.07 | 98 | 1015.3 |
| 20260905130558 | 75 | 49 | 7.0 | 15.0 | 0.07 | 0.07 | 0.07 | 99 | 1015.4 |
| 20260905130400 | 75 | 49 | 6.0 | 15.0 | 0.07 | 0.07 | 0.07 | 99 | 1015.4 |
| 20260905130158 | 75 | 48 | 5.0 | 15.0 | 0.07 | 0.07 | 0.07 | 99 | 1015.3 |
| 20260905130003 | 75 | 41 | 4.0 | 9.0 | 0.07 | 0.07 | 0.07 | 99 | 1015.2 |
| 20260905125759 | 75 | 34 | 4.0 | 6.0 | 0.07 | 0.07 | 0.07 | 99 | 1014.8 |
| 20260905125559 | 75 | 10 | 4.0 | 6.0 | 0.07 | 0.07 | 0.07 | 99 | 1014.7 |
| 20260905125358 | 75 | 24 | 3.0 | 6.0 | 0.07 | 0.07 | 0.07 | 99 | 1014.5 |
| 20260905125159 | 75 | 39 | 2.0 | 5.0 | 0.07 | 0.07 | 0.07 | 99 | 1014.5 |
| 20260905124959 | 76 | 39 | 1.0 | 4.0 | 0.07 | 0.07 | 0.07 | 99 | 1014.5 |
| 20260905124759 | 76 | 39 | 1.0 | 4.0 | 0.07 | 0.07 | 0.07 | 99 | 1014.7 |
| 20260905124400 | 76 | 99 | 1.0 | 2.0 | 0.05 | 0.05 | 0.05 | 98 | 1015.0 |
| 20260905124158 | 76 | 82 | 1.0 | 2.0 | 0.05 | 0.05 | 0.05 | 98 | 1015.0 |
| 20260905123759 | 76 | 205 | 1.0 | 2.0 | 0.03 | 0.03 | 0.03 | 99 | 1015.3 |
| 20260905123358 | 75 | 316 | 1.0 | 4.0 | 0.00 | 0.00 | 0.00 | 99 | 1015.5 |
| 20260905123201 | 75 | 316 | 1.0 | 4.0 | 0.00 | 0.00 | 0.00 | 99 | 1015.6 |
| 20260905122959 | 75 | 328 | 1.0 | 4.0 | 0.00 | 0.00 | 0.00 | 99 | 1015.5 |
| 20260905122759 | 75 | 307 | 1.0 | 4.0 | 0.00 | 0.00 | 0.00 | 99 | 1015.4 |
| 20260905122558 | 75 | 279 | 0.0 | 4.0 | 0.00 | 0.00 | 0.00 | 100 | 1015.1 |
| 20260905122359 | 75 | 88 | 0.0 | 0.0 | 0.00 | 0.00 | 0.00 | 100 | 1014.8 |
| 20260905121959 | 74 | 88 | 0.0 | 0.0 | 0.00 | 0.00 | 0.00 | 100 | 1014.8 |
| 20260905121758 | 74 | 88 | 0.0 | 1.0 | 0.00 | 0.00 | 0.00 | 100 | 1014.7 |
| 20260905121359 | 74 | 88 | 0.0 | 2.0 | 0.00 | 0.00 | 0.00 | 100 | 1014.7 |
| 20260905121159 | 73 | 88 | 0.0 | 2.0 | 0.00 | 0.00 | 0.00 | 100 | 1014.7 |
| 20260905120959 | 73 | 355 | 0.0 | 2.0 | 0.00 | 0.00 | 0.00 | 100 | 1014.8 |
| 20260905120759 | 73 | 357 | 0.0 | 2.0 | 0.00 | 0.00 | 0.00 | 100 | 1014.7 |
| 20260905120359 | 73 | 273 | 1.0 | 2.0 | 0.00 | 0.00 | 0.00 | 100 | 1014.8 |
| 20260905120158 | 73 | 273 | 1.0 | 3.0 | 0.00 | 0.00 | 0.00 | 100 | 1014.8 |
| 20260905120004 | 73 | 273 | 1.0 | 3.0 | 0.00 | 0.00 | 0.00 | 100 | 1014.7 |
| 20260905115759 | 72 | 273 | 1.0 | 3.0 | 0.00 | 0.00 | 0.00 | 100 | 1014.6 |
| 20260905115559 | 72 | 273 | 2.0 | 3.0 | 0.00 | 0.00 | 0.00 | 100 | 1014.7 |
| 20260905115159 | 72 | 269 | 2.0 | 4.0 | 0.00 | 0.00 | 0.00 | 100 | 1014.7 |
| 20260905114959 | 72 | 264 | 1.0 | 4.0 | 0.00 | 0.00 | 0.00 | 100 | 1014.5 |
| 20260905114759 | 72 | 295 | 1.0 | 4.0 | 0.00 | 0.00 | 0.00 | 100 | 1014.5 |
| 20260905114559 | 72 | 37 | 1.0 | 4.0 | 0.00 | 0.00 | 0.00 | 100 | 1014.5 |
| 20260905114359 | 72 | 58 | 0.0 | 4.0 | 0.00 | 0.00 | 0.00 | 100 | 1014.3 |
| 20260905114000 | 72 | 258 | 0.0 | 0.0 | 0.00 | 0.00 | 0.00 | 100 | 1014.2 |
| 20260905113759 | 72 | 258 | 0.0 | 0.0 | 0.00 | 0.00 | 0.00 | 99 | 1014.2 |
| 20260905113559 | 72 | 257 | 0.0 | 0.0 | 0.00 | 0.00 | 0.00 | 99 | 1014.2 |
| 20260905113358 | 72 | 258 | 0.0 | 0.0 | 0.00 | 0.00 | 0.00 | 99 | 1014.2 |
| 20260905113201 | 72 | 258 | 0.0 | 0.0 | 0.00 | 0.00 | 0.00 | 99 | 1014.2 |
| 20260905112959 | 72 | 258 | 0.0 | 0.0 | 0.00 | 0.00 | 0.00 | 100 | 1014.1 |
| 20260905112558 | 72 | 258 | 0.0 | 0.0 | 0.00 | 0.00 | 0.00 | 99 | 1014.1 |
| 20260905112000 | 72 | 258 | 0.0 | 0.0 | 0.00 | 0.00 | 0.00 | 100 | 1013.9 |
| 20260905111759 | 72 | 258 | 0.0 | 0.0 | 0.00 | 0.00 | 0.00 | 100 | 1013.9 |
| 20260905111600 | 72 | 258 | 0.0 | 0.0 | 0.00 | 0.00 | 0.00 | 100 | 1013.8 |
| 20260905111159 | 72 | 258 | 0.0 | 0.0 | 0.00 | 0.00 | 0.00 | 100 | 1013.7 |
| 20260905110959 | 72 | 258 | 0.0 | 0.0 | 0.00 | 0.00 | 0.00 | 100 | 1013.7 |
| 20260905110759 | 72 | 258 | 0.0 | 0.0 | 0.00 | 0.00 | 0.00 | 100 | 1013.7 |
| 20260905110558 | 72 | 258 | 0.0 | 0.0 | 0.00 | 0.00 | 0.00 | 99 | 1013.7 |
| 20260905110159 | 72 | 258 | 0.0 | 0.0 | 0.00 | 0.00 | 0.00 | 99 | 1013.7 |
| 20260905105758 | 72 | 258 | 0.0 | 0.0 | 0.00 | 0.00 | 0.00 | 99 | 1013.6 |
| 20260905105559 | 72 | 258 | 0.0 | 0.0 | 0.00 | 0.00 | 0.00 | 100 | 1013.5 |
| 20260905105358 | 72 | 258 | 0.0 | 0.0 | 0.00 | 0.00 | 0.00 | 100 | 1013.5 |
| 20260905105159 | 72 | 258 | 0.0 | 0.0 | 0.00 | 0.00 | 0.00 | 100 | 1013.5 |
| 20260905104958 | 72 | 258 | 0.0 | 0.0 | 0.00 | 0.00 | 0.00 | 100 | 1013.4 |
| 20260905104800 | 72 | 258 | 0.0 | 0.0 | 0.00 | 0.00 | 0.00 | 99 | 1013.4 |
| 20260905104558 | 72 | 258 | 0.0 | 0.0 | 0.00 | 0.00 | 0.00 | 99 | 1013.4 |
| 20260905104158 | 72 | 258 | 0.0 | 0.0 | 0.00 | 0.00 | 0.00 | 99 | 1013.5 |
| 20260905103558 | 73 | 258 | 0.0 | 0.0 | 0.00 | 0.00 | 0.00 | 99 | 1013.4 |
| 20260905103358 | 73 | 258 | 0.0 | 0.0 | 0.00 | 0.00 | 0.00 | 99 | 1013.3 |
| 20260905103158 | 73 | 258 | 0.0 | 0.0 | 0.00 | 0.00 | 0.00 | 99 | 1013.3 |
| 20260905102959 | 73 | 258 | 0.0 | 0.0 | 0.00 | 0.00 | 0.00 | 100 | 1013.3 |
| 20260905102758 | 73 | 258 | 0.0 | 0.0 | 0.00 | 0.00 | 0.00 | 100 | 1013.4 |
| 20260905102558 | 73 | 258 | 0.0 | 0.0 | 0.00 | 0.00 | 0.00 | 100 | 1013.4 |
| 20260905102359 | 73 | 258 | 0.0 | 0.0 | 0.00 | 0.00 | 0.00 | 100 | 1013.4 |
| 20260905102158 | 73 | 258 | 0.0 | 0.0 | 0.00 | 0.00 | 0.00 | 100 | 1013.4 |
| 20260905101959 | 73 | 258 | 0.0 | 0.0 | 0.00 | 0.00 | 0.00 | 100 | 1013.4 |
| 20260905101559 | 73 | 258 | 0.0 | 0.0 | 0.00 | 0.00 | 0.00 | 99 | 1013.5 |
| 20260905101358 | 73 | 258 | 0.0 | 0.0 | 0.00 | 0.00 | 0.00 | 99 | 1013.5 |
| 20260905101200 | 73 | 258 | 0.0 | 0.0 | 0.00 | 0.00 | 0.00 | 99 | 1013.5 |
| 20260905100958 | 73 | 258 | 0.0 | 0.0 | 0.00 | 0.00 | 0.00 | 99 | 1013.5 |
| 20260905100558 | 73 | 258 | 0.0 | 0.0 | 0.00 | 0.00 | 0.00 | 99 | 1013.5 |
| 20260905100358 | 73 | 258 | 0.0 | 0.0 | 0.00 | 0.00 | 0.00 | 99 | 1013.5 |
| 20260905100158 | 73 | 258 | 0.0 | 0.0 | 0.00 | 0.00 | 0.00 | 99 | 1013.5 |
| 20260905095758 | 73 | 258 | 0.0 | 0.0 | 0.00 | 0.00 | 0.00 | 99 | 1013.5 |
| 20260905095558 | 73 | 258 | 0.0 | 0.0 | 0.00 | 0.00 | 0.00 | 99 | 1013.5 |
| 20260905095358 | 73 | 257 | 0.0 | 0.0 | 0.00 | 0.00 | 0.00 | 99 | 1013.5 |
| 20260905095158 | 73 | 258 | 0.0 | 0.0 | 0.00 | 0.00 | 0.00 | 99 | 1013.5 |
| 20260905094958 | 73 | 258 | 0.0 | 0.0 | 0.00 | 0.00 | 0.00 | 99 | 1013.5 |
| 20260905094758 | 73 | 257 | 0.0 | 0.0 | 0.00 | 0.00 | 0.00 | 99 | 1013.5 |
| 20260905094558 | 73 | 258 | 0.0 | 0.0 | 0.00 | 0.00 | 0.00 | 99 | 1013.5 |
| 20260905094158 | 73 | 257 | 0.0 | 0.0 | 0.00 | 0.00 | 0.00 | 99 | 1013.4 |
| 20260905093958 | 73 | 258 | 0.0 | 0.0 | 0.00 | 0.00 | 0.00 | 99 | 1013.4 |